EW1454 Weather Reports


Display with metric or nautical units.
time (UTC)temp
F
wind
direction
speed
MPH
gust
MPH
rain 1hr
in
rain 24hr
in
rain mn
in
humidity
%
barometer
mb
20260504034050 43 65 1.0 3.0 0.00 0.00 0.00 74 1012.8
20260504033547 43 67 1.0 3.0 0.00 0.00 0.00 74 1012.7
20260504033047 43 35 0.0 3.0 0.00 0.00 0.00 74 1012.8
20260504032551 43 39 2.0 4.0 0.00 0.00 0.00 73 1013.0
20260504032047 43 101 0.0 4.0 0.00 0.00 0.00 73 1012.8
20260504031548 43 53 2.0 2.0 0.00 0.00 0.00 72 1013.1
20260504031050 43 75 0.0 2.0 0.00 0.00 0.00 72 1013.0
20260504031031 44 57 1.0 2.0 0.00 0.00 0.00 72 1012.8
20260504030310 44 87 1.0 2.0 0.00 0.00 0.00 72 1012.9
20260504025550 44 87 1.0 2.0 0.00 0.00 0.00 72 1012.8
20260504025047 44 69 1.0 3.0 0.00 0.00 0.00 71 1012.9
20260504024550 45 79 2.0 3.0 0.00 0.00 0.00 71 1013.0
20260504024051 45 61 1.0 2.0 0.00 0.00 0.00 70 1013.0
20260504024034 45 75 1.0 2.0 0.00 0.00 0.00 68 1013.0
20260504023048 45 75 1.0 3.0 0.00 0.00 0.00 67 1013.1
20260504022550 45 93 2.0 3.0 0.00 0.00 0.00 67 1012.9
20260504022047 45 108 1.0 3.0 0.00 0.00 0.00 67 1013.0
20260504021548 46 101 1.0 3.0 0.00 0.00 0.00 68 1013.2
20260504021050 46 57 2.0 3.0 0.00 0.00 0.00 68 1013.1
20260504020548 46 49 0.0 3.0 0.00 0.00 0.00 67 1013.2
20260504020047 46 94 0.0 2.0 0.00 0.00 0.00 66 1013.3
20260504015553 46 89 0.0 3.0 0.00 0.00 0.00 65 1013.3
20260504015049 46 54 2.0 3.0 0.00 0.00 0.00 66 1013.0
20260504014818 47 115 1.0 3.0 0.00 0.00 0.00 66 1013.1
20260504014051 47 58 1.0 3.0 0.00 0.00 0.00 65 1013.0
20260504013547 47 86 1.0 2.0 0.00 0.00 0.00 66 1013.0
20260504013048 47 76 0.0 2.0 0.00 0.00 0.00 64 1013.2
20260504012552 47 86 2.0 2.0 0.00 0.00 0.00 63 1013.0
20260504012047 47 68 1.0 2.0 0.00 0.00 0.00 62 1013.0
20260504011547 48 84 1.0 2.0 0.00 0.00 0.00 61 1013.1
20260504011051 48 81 2.0 2.0 0.00 0.00 0.00 62 1012.9
20260504010547 49 91 1.0 2.0 0.00 0.00 0.00 61 1012.9
20260504010047 49 89 0.0 2.0 0.00 0.00 0.00 59 1012.9
20260504005551 49 107 1.0 2.0 0.00 0.00 0.00 58 1012.8
20260504005047 50 97 2.0 2.0 0.00 0.00 0.00 56 1012.8
20260504004549 51 128 1.0 2.0 0.00 0.00 0.00 56 1013.0
20260504004051 51 66 0.0 2.0 0.00 0.00 0.00 55 1012.8
20260504003811 52 51 0.0 3.0 0.00 0.00 0.00 50 1012.7
20260504003047 52 24 0.0 3.0 0.00 0.00 0.00 52 1012.8
20260504002550 53 42 0.0 3.0 0.00 0.00 0.00 50 1012.7
20260504002047 54 205 1.0 6.0 0.00 0.00 0.00 49 1012.7
20260504001548 55 136 2.0 6.0 0.00 0.00 0.00 47 1012.7
20260504001050 55 359 3.0 6.0 0.00 0.00 0.00 45 1012.6
20260504000548 55 170 2.0 5.0 0.00 0.00 0.00 45 1012.7
20260504000310 55 217 1.0 9.0 0.00 0.00 0.00 42 1012.6
20260503235551 56 17 2.0 9.0 0.00 0.00 0.00 44 1012.8
20260503235047 56 189 1.0 8.0 0.00 0.00 0.00 41 1012.7
20260503234549 56 119 2.0 8.0 0.00 0.00 0.00 42 1012.5
20260503234052 56 231 6.0 8.0 0.00 0.00 0.00 41 1012.9
20260503233548 56 345 2.0 6.0 0.00 0.00 0.00 42 1012.7
20260503233047 56 191 2.0 7.0 0.00 0.00 0.00 40 1012.7
20260503232550 57 152 1.0 9.0 0.00 0.00 0.00 40 1013.1
20260503232047 57 289 3.0 9.0 0.00 0.00 0.00 41 1013.0
20260503231549 57 73 1.0 12.0 0.00 0.00 0.00 40 1012.8
20260503231051 57 63 0.0 12.0 0.00 0.00 0.00 39 1012.5
20260503230600 57 340 0.0 9.0 0.00 0.00 0.00 39 1012.8
20260503230047 57 355 3.0 11.0 0.00 0.00 0.00 40 1012.7
20260503225552 57 305 3.0 13.0 0.00 0.00 0.00 39 1012.8
20260503225048 58 343 4.0 13.0 0.00 0.00 0.00 38 1012.9
20260503224549 58 114 3.0 9.0 0.00 0.00 0.00 38 1012.9
20260503224051 59 125 2.0 11.0 0.00 0.00 0.00 38 1013.0
20260503223551 59 137 2.0 11.0 0.00 0.00 0.00 37 1012.9
20260503223049 58 112 4.0 11.0 0.00 0.00 0.00 38 1013.3
20260503222551 58 89 2.0 9.0 0.00 0.00 0.00 38 1013.0
20260503222047 58 195 2.0 9.0 0.00 0.00 0.00 38 1013.3
20260503221547 58 321 2.0 9.0 0.00 0.00 0.00 38 1013.2
20260503221323 58 215 2.0 10.0 0.00 0.00 0.00 37 1013.2
20260503220548 58 231 2.0 10.0 0.00 0.00 0.00 38 1013.1
20260503220047 58 226 2.0 9.0 0.00 0.00 0.00 38 1013.3
20260503215552 58 271 3.0 16.0 0.00 0.00 0.00 37 1013.0
20260503215048 59 169 1.0 16.0 0.00 0.00 0.00 36 1013.0
20260503214549 60 141 0.0 8.0 0.00 0.00 0.00 38 1013.0
20260503214050 57 312 4.0 13.0 0.00 0.00 0.00 38 1013.0
20260503213548 58 272 2.0 19.0 0.00 0.00 0.00 38 1013.0
20260503213048 58 200 5.0 19.0 0.00 0.00 0.00 38 1012.8
20260503212550 59 255 9.0 11.0 0.00 0.00 0.00 38 1012.9
20260503212047 59 142 3.0 11.0 0.00 0.00 0.00 37 1012.7
20260503211809 58 217 3.0 11.0 0.00 0.00 0.00 38 1012.9
20260503211540 60 215 2.0 19.0 0.00 0.00 0.00 37 1013.0
20260503210548 59 303 8.0 19.0 0.00 0.00 0.00 37 1013.1
20260503210048 60 220 3.0 15.0 0.00 0.00 0.00 38 1012.8
20260503205551 58 89 2.0 15.0 0.00 0.00 0.00 38 1013.1
20260503205048 57 285 6.0 15.0 0.00 0.00 0.00 38 1013.1
20260503204549 58 345 4.0 13.0 0.00 0.00 0.00 37 1013.3
20260503204052 60 295 10.0 14.0 0.00 0.00 0.00 36 1013.3
20260503203547 60 284 4.0 14.0 0.00 0.00 0.00 37 1013.3
20260503203309 61 201 4.0 11.0 0.00 0.00 0.00 36 1013.1
20260503202551 60 158 4.0 13.0 0.00 0.00 0.00 38 1013.2
20260503202047 59 230 3.0 13.0 0.00 0.00 0.00 37 1013.4
20260503201548 60 224 4.0 16.0 0.00 0.00 0.00 37 1013.5
20260503201051 60 234 9.0 16.0 0.00 0.00 0.00 36 1013.5
20260503200548 58 213 0.0 18.0 0.00 0.00 0.00 41 1013.4
20260503200047 58 151 3.0 18.0 0.00 0.00 0.00 40 1013.5
20260503195551 61 182 3.0 13.0 0.00 0.00 0.00 36 1013.6
20260503195048 59 258 3.0 13.0 0.00 0.00 0.00 37 1013.8
20260503194547 59 168 1.0 11.0 0.00 0.00 0.00 39 1013.9
20260503194052 60 329 2.0 12.0 0.00 0.00 0.00 36 1014.0
20260503193817 60 262 4.0 13.0 0.00 0.00 0.00 35 1013.9
20260503193047 60 348 1.0 13.0 0.00 0.00 0.00 37 1013.9
20260503192552 59 244 5.0 10.0 0.00 0.00 0.00 37 1014.2
20260503192048 58 313 6.0 13.0 0.00 0.00 0.00 36 1014.3
20260503191548 59 44 1.0 13.0 0.00 0.00 0.00 40 1014.3
20260503191053 60 348 3.0 16.0 0.00 0.00 0.00 37 1014.3
20260503190547 58 197 4.0 16.0 0.00 0.00 0.00 37 1014.3
20260503190050 58 123 4.0 14.0 0.00 0.00 0.00 40 1014.7
20260503185553 58 311 6.0 10.0 0.00 0.00 0.00 38 1014.7
20260503185315 58 220 4.0 12.0 0.00 0.00 0.00 39 1014.6
20260503184547 56 195 2.0 12.0 0.00 0.00 0.00 39 1014.6
20260503184052 58 163 5.0 13.0 0.00 0.00 0.00 38 1014.5
20260503183548 57 311 6.0 15.0 0.00 0.00 0.00 39 1014.9
20260503183047 59 267 2.0 15.0 0.00 0.00 0.00 37 1015.0
20260503182551 59 135 4.0 11.0 0.00 0.00 0.00 40 1014.8
20260503182048 58 68 4.0 11.0 0.00 0.00 0.00 40 1015.1
20260503181547 58 338 2.0 10.0 0.00 0.00 0.00 39 1014.8
20260503181053 58 208 3.0 10.0 0.00 0.00 0.00 38 1014.9
20260503180548 57 144 5.0 9.0 0.00 0.00 0.00 38 1015.1
20260503180049 58 32 3.0 12.0 0.00 0.00 0.00 42 1015.1
20260503175551 57 266 6.0 20.0 0.00 0.00 0.00 38 1015.3
20260503175049 58 272 3.0 20.0 0.00 0.00 0.00 38 1015.2
20260503174548 57 253 3.0 12.0 0.00 0.00 0.00 40 1015.1
20260503174051 55 165 4.0 15.0 0.00 0.00 0.00 41 1015.5
20260503173547 56 102 3.0 15.0 0.00 0.00 0.00 39 1015.3
20260503173047 56 221 3.0 15.0 0.00 0.00 0.00 40 1015.1
20260503172551 56 160 2.0 14.0 0.00 0.00 0.00 44 1015.3
20260503172047 54 212 14.0 14.0 0.00 0.00 0.00 41 1015.5
20260503171547 55 215 4.0 11.0 0.00 0.00 0.00 39 1015.4
20260503171051 54 58 2.0 12.0 0.00 0.00 0.00 43 1015.7
20260503170600 54 339 2.0 12.0 0.00 0.00 0.00 40 1015.7
20260503150549 50 188 0.0 13.0 0.00 0.00 0.00 45 1016.5
20260503150320 50 167 4.0 17.0 0.00 0.00 0.00 49 1016.4
20260503131051 45 0 5.0 8.0 0.00 0.00 0.00 68 1016.9
20260503130547 44 317 2.0 8.0 0.00 0.00 0.00 69 1017.0
20260503110548 31 68 1.0 3.0 0.00 0.00 0.00 98 1016.3
20260503090306 31 86 1.0 3.0 0.00 0.00 0.00 97 1015.6
20260503081547 33 84 2.0 3.0 0.00 0.00 0.00 97 1015.1
20260503081050 33 99 0.0 3.0 0.00 0.00 0.00 97 1015.3
20260503080547 33 89 0.0 3.0 0.00 0.00 0.00 97 1015.5
20260503072817 34 93 2.0 3.0 0.00 0.00 0.00 97 1015.2
20260503072048 33 49 2.0 3.0 0.00 0.00 0.00 97 1015.1
20260503071548 33 139 0.0 2.0 0.00 0.00 0.00 97 1015.2
20260503071051 33 150 1.0 3.0 0.00 0.00 0.00 97 1015.2
20260503070815 33 100 2.0 3.0 0.00 0.00 0.00 96 1015.1
20260503070325 33 100 0.0 2.0 0.00 0.00 0.00 96 1015.1
20260503055047 32 89 2.0 3.0 0.00 0.00 0.00 95 1015.1
20260503054548 32 84 2.0 3.0 0.00 0.00 0.00 95 1015.2
20260503054050 32 91 2.0 2.0 0.00 0.00 0.00 95 1015.2
20260503053549 32 89 0.0 2.0 0.00 0.00 0.00 95 1015.1
20260503053047 32 73 2.0 2.0 0.00 0.00 0.00 95 1015.3
20260503052552 32 57 1.0 3.0 0.00 0.00 0.00 95 1015.5
20260503052310 32 44 1.0 3.0 0.00 0.00 0.00 95 1015.5
20260503051548 32 89 0.0 2.0 0.00 0.00 0.00 94 1015.4
20260503051052 32 84 2.0 3.0 0.00 0.00 0.00 94 1015.3
20260503050602 32 78 2.0 3.0 0.00 0.00 0.00 94 1015.6
20260503050047 32 72 1.0 3.0 0.00 0.00 0.00 94 1015.5
20260503045553 32 73 2.0 2.0 0.00 0.00 0.00 94 1015.4
20260503045049 33 73 1.0 3.0 0.00 0.00 0.00 94 1015.5
20260503044547 33 68 0.0 3.0 0.00 0.00 0.00 94 1015.5
20260503044313 33 71 2.0 3.0 0.00 0.00 0.00 93 1015.5
20260503043547 33 89 0.0 3.0 0.00 0.00 0.00 93 1015.6
20260503043310 33 80 1.0 2.0 0.00 0.00 0.00 93 1015.6
20260503042550 33 94 1.0 2.0 0.00 0.00 0.00 93 1015.4
20260503042048 33 62 1.0 2.0 0.00 0.00 0.00 93 1015.4
20260503041549 34 87 1.0 2.0 0.00 0.00 0.00 92 1015.5
20260503041053 34 128 1.0 2.0 0.00 0.00 0.00 92 1015.5
20260503040547 34 89 1.0 2.0 0.00 0.00 0.00 92 1015.7
20260503040319 34 85 1.0 2.0 0.00 0.00 0.00 92 1015.6
20260503035551 34 81 1.0 3.0 0.00 0.00 0.00 91 1015.4
20260503035047 35 70 2.0 3.0 0.00 0.00 0.00 91 1015.4